Jenks, OK

2:28 AM CDT on October 01, 2016 (GMT -0500)
Jones Jr.

Weather History for KRVS - December, 2011

Change the Weather History Date:

Sunday, December 25, 2011

  Actual Average (KTUL) Record (KTUL)
Temperature  
Mean Temperature 38 °F 38 °F  
Max Temperature 55 °F 48 °F 73 °F (1922)
Min Temperature 21 °F 28 °F -2 °F (1983)
Degree Days  
Heating Degree Days 27 27  
Month to date heating degree days 628  
Since 1 July heating degree days 1264  
Moisture  
Dew Point 24 °F    
Average Humidity 65    
Maximum Humidity 88    
Minimum Humidity 29    
Precipitation  
Precipitation 0.00 in 0.08 in 1.29 in (1987)
Month to date precipitation 2.09  
Year to date precipitation 40.57  
Sea Level Pressure  
Sea Level Pressure 30.42 in    
Wind  
Wind Speed 0 mph (ENE)    
Max Wind Speed 4 mph    
Max Gust Speed -    
Visibility 10 miles    
Events      
T = Trace of Precipitation, MM = Missing Value Source: NWS Daily Summary

Daily Weather History Graph

Daily Weather History Graph

Search for Another Location

Airport or City:

Trip Planner

Search our weather history database for the weather conditions in past years. The results will help you decide how hot, cold, wet, or windy it might be!

Date:

Astronomy

Dec. 25, 2011 Rise Set
Actual Time 7:32 AM CST 5:15 PM CST
Civil Twilight 7:03 AM CST 5:44 PM CST
Nautical Twilight 6:31 AM CST 6:16 PM CST
Astronomical Twilight 6:00 AM CST 6:47 PM CST
Moon 8:12 AM CST (12/25) 6:35 PM CST (12/25)
Length of Visible Light 10h 40m
Length of Day
9h 42m
New Moon, 1% of the Moon is Illuminated
Dec 25
New Moon
Jan 1
First Quarter
Jan 9
Full
Jan 16
Last Quarter
Jan 23
New

Hourly Weather History & Observations

Time (CST) Temp. Windchill Dew Point Humidity Pressure Visibility Wind Dir Wind Speed Gust Speed Precip Events Conditions
12:53 AM 26.1 °F - 21.0 °F 81% 30.43 in 10.0 mi Calm Calm - N/A   Clear
1:53 AM 23.0 °F - 19.9 °F 88% 30.43 in 10.0 mi Calm Calm - N/A   Clear
2:53 AM 24.1 °F - 19.9 °F 84% 30.43 in 10.0 mi Calm Calm - N/A   Clear
3:53 AM 25.0 °F - 19.9 °F 81% 30.43 in 10.0 mi Calm Calm - N/A   Clear
4:53 AM 23.0 °F - 19.0 °F 85% 30.43 in 10.0 mi Calm Calm - N/A   Clear
6:53 AM 23.0 °F - 19.0 °F 85% 30.47 in 10.0 mi Calm Calm - N/A   Clear
7:53 AM 21.9 °F - 18.0 °F 85% 30.48 in 10.0 mi Calm Calm - N/A   Clear
8:53 AM 30.0 °F - 25.0 °F 82% 30.49 in 10.0 mi Calm Calm - N/A   Clear
9:53 AM 39.0 °F - 28.9 °F 67% 30.50 in 10.0 mi Calm Calm - N/A   Clear
10:53 AM 46.0 °F 44.8 °F 28.9 °F 51% 30.48 in 10.0 mi NE 3.5 mph - N/A   Clear
11:53 AM 51.1 °F - 27.0 °F 39% 30.45 in 10.0 mi NE 3.5 mph - N/A   Clear
12:53 PM 53.1 °F - 25.0 °F 34% 30.42 in 10.0 mi ENE 3.5 mph - N/A   Clear
1:53 PM 55.0 °F - 23.0 °F 29% 30.38 in 10.0 mi Calm Calm - N/A   Clear
4:53 PM 54.0 °F - 24.1 °F 31% 30.39 in 10.0 mi Calm Calm - N/A   Clear
5:53 PM 42.1 °F - 27.0 °F 55% 30.40 in 10.0 mi Calm Calm - N/A   Clear
6:53 PM 39.0 °F - 27.0 °F 62% 30.40 in 10.0 mi Calm Calm - N/A   Clear
7:53 PM 39.0 °F - 28.0 °F 65% 30.40 in 10.0 mi Calm Calm - N/A   Clear
8:53 PM 37.0 °F - 28.0 °F 70% 30.38 in 10.0 mi Calm Calm - N/A   Clear
9:53 PM 37.9 °F - 28.9 °F 70% 30.36 in 10.0 mi Calm Calm - N/A   Clear
10:53 PM 37.9 °F - 28.9 °F 70% 30.36 in 10.0 mi Calm Calm - N/A   Clear
11:53 PM 44.1 °F - 27.0 °F 51% 30.33 in 10.0 mi Calm Calm - N/A   Mostly Cloudy